CW5212 Weather Reports


Display with metric or nautical units.
time (UTC)temp
F
wind
direction
speed
MPH
gust
MPH
rain 1hr
in
rain 24hr
in
rain mn
in
humidity
%
barometer
mb
20260904123017 45 220 3.0 7.0 0.00 0.00 0.00 78 939.1
20260904121556 45 200 1.0 5.0 0.00 0.00 0.00 79 939.0
20260904120056 44 252 4.0 8.0 0.00 0.00 0.00 84 939.0
20260904114528 43 251 8.0 13.0 0.00 0.00 0.00 85 938.6
20260904113015 43 263 8.0 14.0 0.00 0.00 0.00 86 938.5
20260904111558 43 226 8.0 13.0 0.00 0.00 0.00 86 938.3
20260904110034 43 227 9.0 15.0 0.00 0.00 0.00 85 938.1
20260904104517 43 236 9.0 14.0 0.00 0.00 0.00 84 937.8
20260904103052 44 229 7.0 14.0 0.00 0.00 0.00 82 937.7
20260904101538 45 217 9.0 15.0 0.00 0.00 0.00 78 937.5
20260904100115 46 260 13.0 17.0 0.00 0.00 0.00 74 937.0
20260904094550 49 217 4.0 7.0 0.00 0.00 0.00 62 936.6
20260904093019 57 245 4.0 14.0 0.00 0.00 0.00 41 936.5
20260904091554 61 138 10.0 17.0 0.00 0.00 0.00 23 936.1
20260904090036 62 123 8.0 15.0 0.00 0.00 0.00 22 936.4
20260904084518 62 102 7.0 14.0 0.00 0.00 0.00 22 936.3
20260904083004 61 138 7.0 15.0 0.00 0.00 0.00 23 936.0
20260904081546 62 90 6.0 13.0 0.00 0.00 0.00 22 936.0
20260904080031 62 96 8.0 13.0 0.00 0.00 0.00 22 936.1
20260904074514 62 87 6.0 13.0 0.00 0.00 0.00 21 936.1
20260904073054 63 113 8.0 12.0 0.00 0.00 0.00 20 936.0
20260904071538 63 100 7.0 12.0 0.00 0.00 0.00 20 936.0
20260904070035 62 106 6.0 10.0 0.00 0.00 0.00 21 936.2
20260904064505 62 108 6.0 9.0 0.00 0.00 0.00 21 936.2
20260904063049 62 121 6.0 12.0 0.00 0.00 0.00 20 936.3
20260904061529 63 101 8.0 13.0 0.00 0.00 0.00 20 936.3
20260904060011 63 101 7.0 12.0 0.00 0.00 0.00 20 936.6
20260904054537 63 123 7.0 11.0 0.00 0.00 0.00 20 936.6
20260904053038 63 129 8.0 13.0 0.00 0.00 0.00 21 936.8
20260904051610 63 111 8.0 12.0 0.00 0.00 0.00 21 936.9
20260904051501 63 134 8.0 12.0 0.00 0.00 0.00 21 937.0
20260904050048 63 106 9.0 13.0 0.00 0.00 0.00 21 937.1
20260904044524 63 119 9.0 13.0 0.00 0.00 0.00 21 937.4
20260904043008 63 114 7.0 11.0 0.00 0.00 0.00 21 937.6
20260904041552 64 123 5.0 10.0 0.00 0.00 0.00 20 937.8
20260904040036 64 109 6.0 9.0 0.00 0.00 0.00 19 937.8
20260904034522 64 119 5.0 10.0 0.00 0.00 0.00 19 937.9
20260904033106 65 128 5.0 9.0 0.00 0.00 0.00 18 938.1
20260904033001 65 126 5.0 8.0 0.00 0.00 0.00 19 938.1
20260904031540 65 132 5.0 9.0 0.00 0.00 0.00 18 938.2
20260904030023 66 134 3.0 10.0 0.00 0.00 0.00 17 938.4
20260904024508 66 165 3.0 11.0 0.00 0.00 0.00 18 938.4
20260904023054 66 153 7.0 15.0 0.00 0.00 0.00 18 938.4
20260904021534 65 180 6.0 12.0 0.00 0.00 0.00 18 938.6
20260904020019 66 199 7.0 11.0 0.00 0.00 0.00 17 938.7
20260904014505 67 187 7.0 14.0 0.00 0.00 0.00 17 938.8
20260904013050 67 211 8.0 12.0 0.00 0.00 0.00 17 939.0
20260904011536 67 190 7.0 12.0 0.00 0.00 0.00 16 938.9
20260904010023 68 216 10.0 18.0 0.00 0.00 0.00 16 938.9
20260904004556 69 184 8.0 14.0 0.00 0.00 0.00 15 939.1
20260904004505 69 199 8.0 14.0 0.00 0.00 0.00 15 939.0
20260904003047 71 213 10.0 20.0 0.00 0.00 0.00 15 939.0
20260904001531 73 217 9.0 18.0 0.00 0.00 0.00 15 939.0
20260904000010 73 194 11.0 18.0 0.00 0.00 0.00 15 939.2
20260903234552 73 267 11.0 18.0 0.00 0.00 0.00 15 939.0
20260903233039 72 216 8.0 17.0 0.00 0.00 0.00 19 939.2
20260903231517 73 171 8.0 18.0 0.00 0.00 0.00 17 939.2
20260903230109 70 102 8.0 22.0 0.00 0.00 0.00 19 939.3
20260903230001 70 168 8.0 22.0 0.00 0.00 0.00 18 939.4
20260903224543 71 173 10.0 16.0 0.00 0.00 0.00 18 939.5
20260903223031 71 182 7.0 15.0 0.00 0.00 0.00 19 939.7
20260903221559 71 192 6.0 12.0 0.00 0.00 0.00 19 939.9
20260903220039 71 113 8.0 12.0 0.00 0.00 0.00 19 940.0
20260903214514 70 111 4.0 10.0 0.00 0.00 0.00 20 940.1
20260903213107 69 311 5.0 14.0 0.00 0.00 0.00 25 940.4
20260903211528 69 91 8.0 15.0 0.00 0.00 0.00 21 940.8
20260903210011 69 202 8.0 17.0 0.00 0.00 0.00 22 941.1
20260903204549 70 79 5.0 16.0 0.00 0.00 0.00 21 941.1
20260903203030 68 82 4.0 13.0 0.00 0.00 0.00 24 941.5
20260903201506 70 101 6.0 18.0 0.00 0.00 0.00 23 941.6
20260903200038 68 275 4.0 13.0 0.00 0.00 0.00 23 941.6
20260903194533 69 119 7.0 11.0 0.00 0.00 0.00 23 941.7
20260903193054 68 126 2.0 13.0 0.00 0.00 0.00 23 941.9
20260903191544 67 192 3.0 14.0 0.00 0.00 0.00 25 942.2
20260903190029 66 184 5.0 13.0 0.00 0.00 0.00 25 942.3
20260903184504 64 289 2.0 12.0 0.00 0.00 0.00 27 942.6
20260903183039 65 76 7.0 14.0 0.00 0.00 0.00 26 942.8
20260903181524 64 103 4.0 7.0 0.00 0.00 0.00 27 942.9
20260903180007 65 115 8.0 12.0 0.00 0.00 0.00 27 942.9
20260903174543 64 219 4.0 14.0 0.00 0.00 0.00 27 943.1
20260903173029 63 143 4.0 11.0 0.00 0.00 0.00 28 943.0
20260903171522 63 124 6.0 14.0 0.00 0.00 0.00 27 942.9
20260903170103 63 153 5.0 10.0 0.00 0.00 0.00 28 942.9
20260903164532 62 147 4.0 11.0 0.00 0.00 0.00 30 942.9
20260903163016 61 182 3.0 8.0 0.00 0.00 0.00 34 942.9
20260903161558 59 125 4.0 11.0 0.00 0.00 0.00 34 943.0
20260903160045 57 56 4.0 8.0 0.00 0.00 0.00 41 942.9
20260903154527 56 65 1.0 4.0 0.00 0.00 0.00 42 943.1
20260903153012 57 67 2.0 4.0 0.00 0.00 0.00 41 943.1
20260903151558 57 73 0.0 3.0 0.00 0.00 0.00 40 943.2
20260903150046 56 63 1.0 4.0 0.00 0.00 0.00 43 943.3
20260903144533 55 302 0.0 2.0 0.00 0.00 0.00 43 943.3
20260903143106 53 302 1.0 3.0 0.00 0.00 0.00 47 943.1
20260903143002 53 302 1.0 3.0 0.00 0.00 0.00 47 943.1
20260903141543 52 302 1.0 3.0 0.00 0.00 0.00 47 942.9
20260903140037 52 302 1.0 3.0 0.00 0.00 0.00 47 942.9
20260903134514 51 302 1.0 3.0 0.00 0.00 0.00 46 942.7
20260903133103 50 355 0.0 2.0 0.00 0.00 0.00 47 942.7
20260903133006 50 355 0.0 2.0 0.00 0.00 0.00 47 942.7
20260903131603 49 355 1.0 2.0 0.00 0.00 0.00 49 942.6
20260903130028 49 355 1.0 4.0 0.00 0.00 0.00 48 942.4
20260903124506 50 273 4.0 8.0 0.00 0.00 0.00 46 942.3